1998-067XV

Last updated on Mon Dec 08 2025 00:02:11 GMT+0000 (Coordinated Universal Time)

1 66909U 98067XV 25340.99177133 .00081279 00000+0 13867-2 0 9997 2 66909 51.6296 170.9073 0005254 195.3758 164.7072 15.50609226 724
UTC large
Height (km)
Speed (km/s)
/
Latitude / Longitude
Inclination (degrees)
Orbital Period (minutes)
Azimuth
Elevation
Range (km)
Doppler Factor

Next 0 passes for location: London (51.5072 / 0.1276)

Sorry there are no passes over London.